Year,Month,Day,Hour,Minute,Value (Times are PST for windgust in km/hr)
2015,10,10,00,00,3.20
2015,10,10,00,01,3.20
2015,10,10,00,02,1.60
2015,10,10,00,03,3.20
2015,10,10,00,04,1.60
2015,10,10,00,09,1.60
2015,10,10,00,10,1.60
2015,10,10,00,20,1.60
2015,10,10,00,21,1.60
2015,10,10,00,25,1.60
2015,10,10,00,26,3.20
2015,10,10,00,27,1.60
2015,10,10,00,37,1.60
2015,10,10,00,38,3.20
2015,10,10,00,39,3.20
2015,10,10,00,46,3.20
2015,10,10,00,47,3.20
2015,10,10,00,48,4.80
2015,10,10,00,49,4.80
2015,10,10,00,50,3.20
2015,10,10,00,51,1.60
2015,10,10,00,52,1.60
2015,10,10,00,53,3.20
2015,10,10,00,54,3.20
2015,10,10,00,55,3.20
2015,10,10,00,56,3.20
2015,10,10,00,57,3.20
2015,10,10,00,58,3.20
2015,10,10,00,59,1.60
2015,10,10,01,00,3.20
2015,10,10,01,01,3.20
2015,10,10,01,02,3.20
2015,10,10,01,03,4.80
2015,10,10,01,04,4.80
2015,10,10,01,05,6.40
2015,10,10,01,06,6.40
2015,10,10,01,07,4.80
2015,10,10,01,08,6.40
2015,10,10,01,09,4.80
2015,10,10,01,10,6.40
2015,10,10,01,11,4.80
2015,10,10,01,12,3.20
2015,10,10,01,13,4.80
2015,10,10,01,14,3.20
2015,10,10,01,15,3.20
2015,10,10,01,16,4.80
2015,10,10,01,17,4.80
2015,10,10,01,18,3.20
2015,10,10,01,19,1.60
2015,10,10,01,20,1.60
2015,10,10,01,21,1.60
2015,10,10,01,22,1.60
2015,10,10,01,23,1.60
2015,10,10,01,26,1.60
2015,10,10,01,28,1.60
2015,10,10,01,30,1.60
2015,10,10,01,32,1.60
2015,10,10,01,33,3.20
2015,10,10,01,34,4.80
2015,10,10,01,35,4.80
2015,10,10,01,36,4.80
2015,10,10,01,37,3.20
2015,10,10,01,38,4.80
2015,10,10,01,39,3.20
2015,10,10,01,40,3.20
2015,10,10,01,41,3.20
2015,10,10,01,42,3.20
2015,10,10,01,43,3.20
2015,10,10,01,44,3.20
2015,10,10,01,46,1.60
2015,10,10,01,47,3.20
2015,10,10,01,48,1.60
2015,10,10,01,50,1.60
2015,10,10,01,52,3.20
2015,10,10,01,53,3.20
2015,10,10,01,54,1.60
2015,10,10,01,55,1.60
2015,10,10,01,56,1.60
2015,10,10,01,57,1.60
2015,10,10,02,04,1.60
2015,10,10,02,05,3.20
2015,10,10,02,06,3.20
2015,10,10,02,07,3.20
2015,10,10,02,08,3.20
2015,10,10,02,09,4.80
2015,10,10,02,10,3.20
2015,10,10,02,11,4.80
2015,10,10,02,12,4.80
2015,10,10,02,13,3.20
2015,10,10,02,14,3.20
2015,10,10,02,15,3.20
2015,10,10,02,17,1.60
2015,10,10,02,18,1.60
2015,10,10,02,19,1.60
2015,10,10,02,20,1.60
2015,10,10,02,21,1.60
2015,10,10,02,22,1.60
2015,10,10,02,23,1.60
2015,10,10,02,25,1.60
2015,10,10,02,26,3.20
2015,10,10,02,27,3.20
2015,10,10,02,28,3.20
2015,10,10,02,29,1.60
2015,10,10,02,30,3.20
2015,10,10,02,31,1.60
2015,10,10,02,33,1.60
2015,10,10,02,34,3.20
2015,10,10,02,35,3.20
2015,10,10,02,36,4.80
2015,10,10,02,37,8.10
2015,10,10,02,38,9.60
2015,10,10,02,39,11.30
2015,10,10,02,40,11.30
2015,10,10,02,41,4.80
2015,10,10,02,42,1.60
2015,10,10,02,43,3.20
2015,10,10,02,44,3.20
2015,10,10,02,45,4.80
2015,10,10,02,46,4.80
2015,10,10,02,48,1.60
2015,10,10,02,49,3.20
2015,10,10,02,50,1.60
2015,10,10,02,55,1.60
2015,10,10,02,56,3.20
2015,10,10,02,57,1.60
2015,10,10,02,58,3.20
2015,10,10,02,59,3.20
2015,10,10,03,00,1.60
2015,10,10,03,01,3.20
2015,10,10,03,02,3.20
2015,10,10,03,03,3.20
2015,10,10,03,04,3.20
2015,10,10,03,05,4.80
2015,10,10,03,06,4.80
2015,10,10,03,07,8.10
2015,10,10,03,08,3.20
2015,10,10,03,09,4.80
2015,10,10,03,10,1.60
2015,10,10,03,11,1.60
2015,10,10,03,13,3.20
2015,10,10,03,14,3.20
2015,10,10,03,15,1.60
2015,10,10,03,17,1.60
2015,10,10,03,18,1.60
2015,10,10,03,19,3.20
2015,10,10,03,20,4.80
2015,10,10,03,21,4.80
2015,10,10,03,22,4.80
2015,10,10,03,23,3.20
2015,10,10,03,24,4.80
2015,10,10,03,25,6.40
2015,10,10,03,26,3.20
2015,10,10,03,27,3.20
2015,10,10,03,28,4.80
2015,10,10,03,29,4.80
2015,10,10,03,30,3.20
2015,10,10,03,31,4.80
2015,10,10,03,32,3.20
2015,10,10,03,33,1.60
2015,10,10,03,34,3.20
2015,10,10,03,35,4.80
2015,10,10,03,36,6.40
2015,10,10,03,37,6.40
2015,10,10,03,38,3.20
2015,10,10,03,39,3.20
2015,10,10,03,40,3.20
2015,10,10,03,41,4.80
2015,10,10,03,42,1.60
2015,10,10,03,43,4.80
2015,10,10,03,44,4.80
2015,10,10,03,45,1.60
2015,10,10,03,46,4.80
2015,10,10,03,47,3.20
2015,10,10,03,48,3.20
2015,10,10,03,49,4.80
2015,10,10,03,50,8.10
2015,10,10,03,51,4.80
2015,10,10,03,52,3.20
2015,10,10,03,53,1.60
2015,10,10,03,57,1.60
2015,10,10,03,58,4.80
2015,10,10,03,59,3.20
2015,10,10,04,00,3.20
2015,10,10,04,01,4.80
2015,10,10,04,02,1.60
2015,10,10,04,04,1.60
2015,10,10,04,06,3.20
2015,10,10,04,07,1.60
2015,10,10,04,08,4.80
2015,10,10,04,09,8.10
2015,10,10,04,10,6.40
2015,10,10,04,11,3.20
2015,10,10,04,12,3.20
2015,10,10,04,13,3.20
2015,10,10,04,14,3.20
2015,10,10,04,15,3.20
2015,10,10,04,16,4.80
2015,10,10,04,17,4.80
2015,10,10,04,18,4.80
2015,10,10,04,19,6.40
2015,10,10,04,20,8.10
2015,10,10,04,21,8.10
2015,10,10,04,22,4.80
2015,10,10,04,23,3.20
2015,10,10,04,24,3.20
2015,10,10,04,25,1.60
2015,10,10,04,26,4.80
2015,10,10,04,27,4.80
2015,10,10,04,28,1.60
2015,10,10,04,29,3.20
2015,10,10,04,30,3.20
2015,10,10,04,31,6.40
2015,10,10,04,32,6.40
2015,10,10,04,33,6.40
2015,10,10,04,34,4.80
2015,10,10,04,35,1.60
2015,10,10,04,36,4.80
2015,10,10,04,37,3.20
2015,10,10,04,38,1.60
2015,10,10,04,39,3.20
2015,10,10,04,40,4.80
2015,10,10,04,41,4.80
2015,10,10,04,42,3.20
2015,10,10,04,43,3.20
2015,10,10,04,44,3.20
2015,10,10,04,45,3.20
2015,10,10,04,46,4.80
2015,10,10,04,47,3.20
2015,10,10,04,48,3.20
2015,10,10,04,49,3.20
2015,10,10,04,50,1.60
2015,10,10,04,52,4.80
2015,10,10,04,53,1.60
2015,10,10,04,54,1.60
2015,10,10,05,02,1.60
2015,10,10,05,03,3.20
2015,10,10,05,06,4.80
2015,10,10,05,07,3.20
2015,10,10,05,08,4.80
2015,10,10,05,09,3.20
2015,10,10,05,10,3.20
2015,10,10,05,12,3.20
2015,10,10,05,13,4.80
2015,10,10,05,14,4.80
2015,10,10,05,15,3.20
2015,10,10,05,16,3.20
2015,10,10,05,17,4.80
2015,10,10,05,18,6.40
2015,10,10,05,19,4.80
2015,10,10,05,20,4.80
2015,10,10,05,21,3.20
2015,10,10,05,22,1.60
2015,10,10,05,23,1.60
2015,10,10,05,24,3.20
2015,10,10,05,25,4.80
2015,10,10,05,26,3.20
2015,10,10,05,27,6.40
2015,10,10,05,28,6.40
2015,10,10,05,29,4.80
2015,10,10,05,30,3.20
2015,10,10,05,31,1.60
2015,10,10,05,32,4.80
2015,10,10,05,33,4.80
2015,10,10,05,34,3.20
2015,10,10,05,35,3.20
2015,10,10,05,36,3.20
2015,10,10,05,37,1.60
2015,10,10,05,38,1.60
2015,10,10,05,41,1.60
2015,10,10,05,42,4.80
2015,10,10,05,43,3.20
2015,10,10,06,04,4.80
2015,10,10,06,05,1.60
2015,10,10,06,06,1.60
2015,10,10,06,07,4.80
2015,10,10,06,08,4.80
2015,10,10,06,09,4.80
2015,10,10,06,10,4.80
2015,10,10,06,11,4.80
2015,10,10,06,12,3.20
2015,10,10,06,13,3.20
2015,10,10,06,14,1.60
2015,10,10,06,15,1.60
2015,10,10,06,16,6.40
2015,10,10,06,17,4.80
2015,10,10,06,19,1.60
2015,10,10,06,20,8.10
2015,10,10,06,21,3.20
2015,10,10,06,22,3.20
2015,10,10,06,23,4.80
2015,10,10,06,24,6.40
2015,10,10,06,25,8.10
2015,10,10,06,26,6.40
2015,10,10,06,27,1.60
2015,10,10,06,29,1.60
2015,10,10,06,32,1.60
2015,10,10,06,35,1.60
2015,10,10,07,47,3.20
2015,10,10,07,48,3.20
2015,10,10,07,49,1.60
2015,10,10,07,51,1.60
2015,10,10,07,52,1.60
2015,10,10,07,53,3.20
2015,10,10,07,54,3.20
2015,10,10,07,55,1.60
2015,10,10,07,59,3.20
2015,10,10,08,00,4.80
2015,10,10,08,01,4.80
2015,10,10,08,02,4.80
2015,10,10,08,03,4.80
2015,10,10,08,14,3.20
2015,10,10,08,15,4.80
2015,10,10,08,16,4.80
2015,10,10,08,17,3.20
2015,10,10,08,18,1.60
2015,10,10,08,19,1.60
2015,10,10,08,20,1.60
2015,10,10,08,24,1.60
2015,10,10,08,25,3.20
2015,10,10,08,26,4.80
2015,10,10,08,27,1.60
2015,10,10,08,28,1.60
2015,10,10,08,29,4.80
2015,10,10,08,30,1.60
2015,10,10,08,31,3.20
2015,10,10,08,33,1.60
2015,10,10,08,35,1.60
2015,10,10,08,38,1.60
2015,10,10,08,39,1.60
2015,10,10,08,53,1.60
2015,10,10,08,54,1.60
2015,10,10,08,56,1.60
2015,10,10,08,57,3.20
2015,10,10,08,58,3.20
2015,10,10,08,59,3.20
2015,10,10,09,00,1.60
2015,10,10,09,01,1.60
2015,10,10,09,02,1.60
2015,10,10,09,03,1.60
2015,10,10,09,04,1.60
2015,10,10,09,05,1.60
2015,10,10,09,23,3.20
2015,10,10,09,24,3.20
2015,10,10,09,25,3.20
2015,10,10,09,26,4.80
2015,10,10,09,27,4.80
2015,10,10,09,28,4.80
2015,10,10,09,29,3.20
2015,10,10,09,30,1.60
2015,10,10,09,31,3.20
2015,10,10,09,32,1.60
2015,10,10,09,34,1.60
2015,10,10,09,36,1.60
2015,10,10,09,37,1.60
2015,10,10,09,42,4.80
2015,10,10,09,43,4.80
2015,10,10,09,44,3.20
2015,10,10,09,45,1.60
2015,10,10,09,46,1.60
2015,10,10,09,48,4.80
2015,10,10,09,49,3.20
2015,10,10,09,50,3.20
2015,10,10,09,51,3.20
2015,10,10,09,52,4.80
2015,10,10,09,53,4.80
2015,10,10,09,54,1.60
2015,10,10,09,55,1.60
2015,10,10,09,56,4.80
2015,10,10,09,57,6.40
2015,10,10,09,58,8.10
2015,10,10,09,59,3.20
2015,10,10,10,00,3.20
2015,10,10,10,01,4.80
2015,10,10,10,02,1.60
2015,10,10,10,03,4.80
2015,10,10,10,05,1.60
2015,10,10,10,06,3.20
2015,10,10,10,07,3.20
2015,10,10,10,08,6.40
2015,10,10,10,09,6.40
2015,10,10,10,10,4.80
2015,10,10,10,11,3.20
2015,10,10,10,12,3.20
2015,10,10,10,13,4.80
2015,10,10,10,14,4.80
2015,10,10,10,15,3.20
2015,10,10,10,16,6.40
2015,10,10,10,17,6.40
2015,10,10,10,18,4.80
2015,10,10,10,19,6.40
2015,10,10,10,20,4.80
2015,10,10,10,21,4.80
2015,10,10,10,22,4.80
2015,10,10,10,23,1.60
2015,10,10,10,24,3.20
2015,10,10,10,25,6.40
2015,10,10,10,26,4.80
2015,10,10,10,30,3.20
2015,10,10,10,31,4.80
2015,10,10,10,32,6.40
2015,10,10,10,33,4.80
2015,10,10,10,34,4.80
2015,10,10,10,35,6.40
2015,10,10,10,36,6.40
2015,10,10,10,37,1.60
2015,10,10,10,44,1.60
2015,10,10,10,45,3.20
2015,10,10,10,46,1.60
2015,10,10,10,47,4.80
2015,10,10,10,48,3.20
2015,10,10,10,49,1.60
2015,10,10,10,54,1.60
2015,10,10,10,56,1.60
2015,10,10,10,57,4.80
2015,10,10,10,58,6.40
2015,10,10,10,59,8.10
2015,10,10,11,00,6.40
2015,10,10,11,01,8.10
2015,10,10,11,02,8.10
2015,10,10,11,03,6.40
2015,10,10,11,04,4.80
2015,10,10,11,05,3.20
2015,10,10,11,06,4.80
2015,10,10,11,07,6.40
2015,10,10,11,08,4.80
2015,10,10,11,09,8.10
2015,10,10,11,10,6.40
2015,10,10,11,11,4.80
2015,10,10,11,12,4.80
2015,10,10,11,13,4.80
2015,10,10,11,14,8.10
2015,10,10,11,15,6.40
2015,10,10,11,16,6.40
2015,10,10,11,17,6.40
2015,10,10,11,18,1.60
2015,10,10,11,19,3.20
2015,10,10,11,20,3.20
2015,10,10,11,21,3.20
2015,10,10,11,22,3.20
2015,10,10,11,23,4.80
2015,10,10,11,24,8.10
2015,10,10,11,25,9.60
2015,10,10,11,26,4.80
2015,10,10,11,27,4.80
2015,10,10,11,28,3.20
2015,10,10,11,29,4.80
2015,10,10,11,30,4.80
2015,10,10,11,31,4.80
2015,10,10,11,32,4.80
2015,10,10,11,33,3.20
2015,10,10,11,34,3.20
2015,10,10,11,35,4.80
2015,10,10,11,36,1.60
2015,10,10,11,37,1.60
2015,10,10,11,38,4.80
2015,10,10,11,39,3.20
2015,10,10,11,40,4.80
2015,10,10,11,41,4.80
2015,10,10,11,42,4.80
2015,10,10,11,43,1.60
2015,10,10,11,44,1.60
2015,10,10,11,45,3.20
2015,10,10,11,46,6.40
2015,10,10,11,47,6.40
2015,10,10,11,48,1.60
2015,10,10,11,50,8.10
2015,10,10,11,51,6.40
2015,10,10,11,52,4.80
2015,10,10,11,53,3.20
2015,10,10,11,54,3.20
2015,10,10,11,55,1.60
2015,10,10,11,59,1.60
2015,10,10,12,00,1.60
2015,10,10,12,01,1.60
2015,10,10,12,02,1.60
2015,10,10,12,07,1.60
2015,10,10,12,08,4.80
2015,10,10,12,09,1.60
2015,10,10,12,11,1.60
2015,10,10,12,12,1.60
2015,10,10,12,14,1.60
2015,10,10,12,15,4.80
2015,10,10,12,16,3.20
2015,10,10,12,26,6.40
2015,10,10,12,27,4.80
2015,10,10,12,28,3.20
2015,10,10,12,29,3.20
2015,10,10,12,30,1.60
2015,10,10,12,31,4.80
2015,10,10,12,32,4.80
2015,10,10,12,33,3.20
2015,10,10,12,34,3.20
2015,10,10,12,35,6.40
2015,10,10,12,36,3.20
2015,10,10,12,37,4.80
2015,10,10,12,38,1.60
2015,10,10,12,39,1.60
2015,10,10,12,40,3.20
2015,10,10,12,41,3.20
2015,10,10,12,42,3.20
2015,10,10,12,43,3.20
2015,10,10,12,44,4.80
2015,10,10,12,45,3.20
2015,10,10,12,46,3.20
2015,10,10,12,47,4.80
2015,10,10,12,48,4.80
2015,10,10,12,49,3.20
2015,10,10,12,51,4.80
2015,10,10,12,52,3.20
2015,10,10,12,54,1.60
2015,10,10,12,55,4.80
2015,10,10,12,57,3.20
2015,10,10,12,58,4.80
2015,10,10,12,59,1.60
2015,10,10,13,00,1.60
2015,10,10,13,01,6.40
2015,10,10,13,02,8.10
2015,10,10,13,03,6.40
2015,10,10,13,04,4.80
2015,10,10,13,05,3.20
2015,10,10,13,06,1.60
2015,10,10,13,07,3.20
2015,10,10,13,08,3.20
2015,10,10,13,13,3.20
2015,10,10,13,14,3.20
2015,10,10,13,15,4.80
2015,10,10,13,16,4.80
2015,10,10,13,17,4.80
2015,10,10,13,18,1.60
2015,10,10,13,21,1.60
2015,10,10,13,22,1.60
2015,10,10,13,25,4.80
2015,10,10,13,26,3.20
2015,10,10,13,27,4.80
2015,10,10,13,28,1.60
2015,10,10,13,29,4.80
2015,10,10,13,30,3.20
2015,10,10,13,31,3.20
2015,10,10,13,32,4.80
2015,10,10,13,33,3.20
2015,10,10,13,34,8.10
2015,10,10,13,35,6.40
2015,10,10,13,36,4.80
2015,10,10,13,37,3.20
2015,10,10,13,38,4.80
2015,10,10,13,39,4.80
2015,10,10,13,40,6.40
2015,10,10,13,41,8.10
2015,10,10,13,42,4.80
2015,10,10,13,43,3.20
2015,10,10,13,44,4.80
2015,10,10,13,45,6.40
2015,10,10,13,46,4.80
2015,10,10,13,47,3.20
2015,10,10,13,48,4.80
2015,10,10,13,49,6.40
2015,10,10,13,50,4.80
2015,10,10,13,51,4.80
2015,10,10,13,52,6.40
2015,10,10,13,53,6.40
2015,10,10,13,54,4.80
2015,10,10,13,55,4.80
2015,10,10,13,56,3.20
2015,10,10,13,57,3.20
2015,10,10,13,58,3.20
2015,10,10,13,59,3.20
2015,10,10,14,00,6.40
2015,10,10,14,01,3.20
2015,10,10,14,02,4.80
2015,10,10,14,03,8.10
2015,10,10,14,04,4.80
2015,10,10,14,05,4.80
2015,10,10,14,06,4.80
2015,10,10,14,07,4.80
2015,10,10,14,08,6.40
2015,10,10,14,09,6.40
2015,10,10,14,10,4.80
2015,10,10,14,11,4.80
2015,10,10,14,12,3.20
2015,10,10,14,13,6.40
2015,10,10,14,14,4.80
2015,10,10,14,15,6.40
2015,10,10,14,16,6.40
2015,10,10,14,17,9.60
2015,10,10,14,18,19.30
2015,10,10,14,19,46.70
2015,10,10,14,20,35.40
2015,10,10,14,21,33.80
2015,10,10,14,22,14.50
2015,10,10,14,23,9.60
2015,10,10,14,24,20.90
2015,10,10,14,25,14.50
2015,10,10,14,26,22.50
2015,10,10,14,27,29.00
2015,10,10,14,28,22.50
2015,10,10,14,29,20.90
2015,10,10,14,30,14.50
2015,10,10,14,31,17.70
2015,10,10,14,32,17.70
2015,10,10,14,33,20.90
2015,10,10,14,34,20.90
2015,10,10,14,35,24.20
2015,10,10,14,36,30.60
2015,10,10,14,37,12.90
2015,10,10,14,38,19.30
2015,10,10,14,39,30.60
2015,10,10,14,40,14.50
2015,10,10,14,41,17.70
2015,10,10,14,42,25.70
2015,10,10,14,43,20.90
2015,10,10,14,44,24.20
2015,10,10,14,45,20.90
2015,10,10,14,46,16.10
2015,10,10,14,47,25.70
2015,10,10,14,48,24.20
2015,10,10,14,49,17.70
2015,10,10,14,50,9.60
2015,10,10,14,51,14.50
2015,10,10,14,52,14.50
2015,10,10,14,53,11.30
2015,10,10,14,54,6.40
2015,10,10,14,55,20.90
2015,10,10,14,56,40.20
2015,10,10,14,57,29.00
2015,10,10,14,58,11.30
2015,10,10,14,59,6.40
2015,10,10,15,00,11.30
2015,10,10,15,01,14.50
2015,10,10,15,02,16.10
2015,10,10,15,03,12.90
2015,10,10,15,04,17.70
2015,10,10,15,05,19.30
2015,10,10,15,06,20.90
2015,10,10,15,07,32.20
2015,10,10,15,08,25.70
2015,10,10,15,09,22.50
2015,10,10,15,10,32.20
2015,10,10,15,11,20.90
2015,10,10,15,12,14.50
2015,10,10,15,13,29.00
2015,10,10,15,14,12.90
2015,10,10,15,15,16.10
2015,10,10,15,16,27.40
2015,10,10,15,17,22.50
2015,10,10,15,18,29.00
2015,10,10,15,19,29.00
2015,10,10,15,20,25.70
2015,10,10,15,21,22.50
2015,10,10,15,22,22.50
2015,10,10,15,23,37.00
2015,10,10,15,24,19.30
2015,10,10,15,25,29.00
2015,10,10,15,26,20.90
2015,10,10,15,27,11.30
2015,10,10,15,28,16.10
2015,10,10,15,29,22.50
2015,10,10,15,30,33.80
2015,10,10,15,31,30.60
2015,10,10,15,32,62.70
2015,10,10,15,33,24.20
2015,10,10,15,34,19.30
2015,10,10,15,35,19.30
2015,10,10,15,36,22.50
2015,10,10,15,37,25.70
2015,10,10,15,38,24.20
2015,10,10,15,39,14.50
2015,10,10,15,40,20.90
2015,10,10,15,41,27.40
2015,10,10,15,42,24.20
2015,10,10,15,43,19.30
2015,10,10,15,44,29.00
2015,10,10,15,45,30.60
2015,10,10,15,46,20.90
2015,10,10,15,47,25.70
2015,10,10,15,48,20.90
2015,10,10,15,49,25.70
2015,10,10,15,50,20.90
2015,10,10,15,51,30.60
2015,10,10,15,52,33.80
2015,10,10,15,53,35.40
2015,10,10,15,54,20.90
2015,10,10,15,55,19.30
2015,10,10,15,56,20.90
2015,10,10,15,57,19.30
2015,10,10,15,58,8.10
2015,10,10,15,59,17.70
2015,10,10,16,00,17.70
2015,10,10,16,01,33.80
2015,10,10,16,02,27.40
2015,10,10,16,03,19.30
2015,10,10,16,04,19.30
2015,10,10,16,05,17.70
2015,10,10,16,06,20.90
2015,10,10,16,07,9.60
2015,10,10,16,08,24.20
2015,10,10,16,09,16.10
2015,10,10,16,10,11.30
2015,10,10,16,11,9.60
2015,10,10,16,12,17.70
2015,10,10,16,13,24.20
2015,10,10,16,14,20.90
2015,10,10,16,15,19.30
2015,10,10,16,16,20.90
2015,10,10,16,17,30.60
2015,10,10,16,18,17.70
2015,10,10,16,19,20.90
2015,10,10,16,20,16.10
2015,10,10,16,21,20.90
2015,10,10,16,22,24.20
2015,10,10,16,23,37.00
2015,10,10,16,24,25.70
2015,10,10,16,25,29.00
2015,10,10,16,26,19.30
2015,10,10,16,27,19.30
2015,10,10,16,28,20.90
2015,10,10,16,29,19.30
2015,10,10,16,30,24.20
2015,10,10,16,31,29.00
2015,10,10,16,32,22.50
2015,10,10,16,33,14.50
2015,10,10,16,34,24.20
2015,10,10,16,35,20.90
2015,10,10,16,36,22.50
2015,10,10,16,37,24.20
2015,10,10,16,38,20.90
2015,10,10,16,39,20.90
2015,10,10,16,40,22.50
2015,10,10,16,41,29.00
2015,10,10,16,42,22.50
2015,10,10,16,43,27.40
2015,10,10,16,44,25.70
2015,10,10,16,45,22.50
2015,10,10,16,46,20.90
2015,10,10,16,47,22.50
2015,10,10,16,48,20.90
2015,10,10,16,49,27.40
2015,10,10,16,50,29.00
2015,10,10,16,51,16.10
2015,10,10,16,52,12.90
2015,10,10,16,53,19.30
2015,10,10,16,54,24.20
2015,10,10,16,55,9.60
2015,10,10,16,56,20.90
2015,10,10,16,57,19.30
2015,10,10,16,58,16.10
2015,10,10,16,59,22.50
2015,10,10,17,00,11.30
2015,10,10,17,01,27.40
2015,10,10,17,02,27.40
2015,10,10,17,03,24.20
2015,10,10,17,04,24.20
2015,10,10,17,05,16.10
2015,10,10,17,06,25.70
2015,10,10,17,07,17.70
2015,10,10,17,08,25.70
2015,10,10,17,09,37.00
2015,10,10,17,10,38.60
2015,10,10,17,11,24.20
2015,10,10,17,12,33.80
2015,10,10,17,13,22.50
2015,10,10,17,14,30.60
2015,10,10,17,15,20.90
2015,10,10,17,16,32.20
2015,10,10,17,17,45.10
2015,10,10,17,18,20.90
2015,10,10,17,19,30.60
2015,10,10,17,20,17.70
2015,10,10,17,21,17.70
2015,10,10,17,22,29.00
2015,10,10,17,23,30.60
2015,10,10,17,24,25.70
2015,10,10,17,25,24.20
2015,10,10,17,26,25.70
2015,10,10,17,27,29.00
2015,10,10,17,28,17.70
2015,10,10,17,29,24.20
2015,10,10,17,30,29.00
2015,10,10,17,31,20.90
2015,10,10,17,32,14.50
2015,10,10,17,33,19.30
2015,10,10,17,34,22.50
2015,10,10,17,35,24.20
2015,10,10,17,36,11.30
2015,10,10,17,37,11.30
2015,10,10,17,38,17.70
2015,10,10,17,39,22.50
2015,10,10,17,40,20.90
2015,10,10,17,41,25.70
2015,10,10,17,42,16.10
2015,10,10,17,43,8.10
2015,10,10,17,44,17.70
2015,10,10,17,45,17.70
2015,10,10,17,46,14.50
2015,10,10,17,47,11.30
2015,10,10,17,48,11.30
2015,10,10,17,49,8.10
2015,10,10,17,50,32.20
2015,10,10,17,51,16.10
2015,10,10,17,52,11.30
2015,10,10,17,53,20.90
2015,10,10,17,54,11.30
2015,10,10,17,55,11.30
2015,10,10,17,56,12.90
2015,10,10,17,57,25.70
2015,10,10,17,58,22.50
2015,10,10,17,59,30.60
2015,10,10,18,00,35.40
2015,10,10,18,01,12.90
2015,10,10,18,02,19.30
2015,10,10,18,03,16.10
2015,10,10,18,04,33.80
2015,10,10,18,05,33.80
2015,10,10,18,06,37.00
2015,10,10,18,07,32.20
2015,10,10,18,08,20.90
2015,10,10,18,09,19.30
2015,10,10,18,10,27.40
2015,10,10,18,11,16.10
2015,10,10,18,12,29.00
2015,10,10,18,13,22.50
2015,10,10,18,14,25.70
2015,10,10,18,15,6.40
2015,10,10,18,16,11.30
2015,10,10,18,17,32.20
2015,10,10,18,18,27.40
2015,10,10,18,19,20.90
2015,10,10,18,20,27.40
2015,10,10,18,21,14.50
2015,10,10,18,22,16.10
2015,10,10,18,23,16.10
2015,10,10,18,24,30.60
2015,10,10,18,25,20.90
2015,10,10,18,26,33.80
2015,10,10,18,27,29.00
2015,10,10,18,28,17.70
2015,10,10,18,29,17.70
2015,10,10,18,30,29.00
2015,10,10,18,31,16.10
2015,10,10,18,32,11.30
2015,10,10,18,33,40.20
2015,10,10,18,34,40.20
2015,10,10,18,35,11.30
2015,10,10,18,36,24.20
2015,10,10,18,37,22.50
2015,10,10,18,38,35.40
2015,10,10,18,39,22.50
2015,10,10,18,40,45.10
2015,10,10,18,41,22.50
2015,10,10,18,42,32.20
2015,10,10,18,43,25.70
2015,10,10,18,44,25.70
2015,10,10,18,45,24.20
2015,10,10,18,46,24.20
2015,10,10,18,47,22.50
2015,10,10,18,48,20.90
2015,10,10,18,49,32.20
2015,10,10,18,50,35.40
2015,10,10,18,51,29.00
2015,10,10,18,52,25.70
2015,10,10,18,53,20.90
2015,10,10,18,54,17.70
2015,10,10,18,55,25.70
2015,10,10,18,56,16.10
2015,10,10,18,57,27.40
2015,10,10,18,58,33.80
2015,10,10,18,59,33.80
2015,10,10,19,00,16.10
2015,10,10,19,01,32.20
2015,10,10,19,02,37.00
2015,10,10,19,03,24.20
2015,10,10,19,04,40.20
2015,10,10,19,05,20.90
2015,10,10,19,06,20.90
2015,10,10,19,07,20.90
2015,10,10,19,08,14.50
2015,10,10,19,09,19.30
2015,10,10,19,10,24.20
2015,10,10,19,11,24.20
2015,10,10,19,12,25.70
2015,10,10,19,13,22.50
2015,10,10,19,14,27.40
2015,10,10,19,15,29.00
2015,10,10,19,16,30.60
2015,10,10,19,17,16.10
2015,10,10,19,18,29.00
2015,10,10,19,19,25.70
2015,10,10,19,20,27.40
2015,10,10,19,21,24.20
2015,10,10,19,22,11.30
2015,10,10,19,23,9.60
2015,10,10,19,24,9.60
2015,10,10,19,25,22.50
2015,10,10,19,26,19.30
2015,10,10,19,27,25.70
2015,10,10,19,28,16.10
2015,10,10,19,29,16.10
2015,10,10,19,30,14.50
2015,10,10,19,31,9.60
2015,10,10,19,32,14.50
2015,10,10,19,33,6.40
2015,10,10,19,34,24.20
2015,10,10,19,35,16.10
2015,10,10,19,36,11.30
2015,10,10,19,37,17.70
2015,10,10,19,38,14.50
2015,10,10,19,39,14.50
2015,10,10,19,40,9.60
2015,10,10,19,41,19.30
2015,10,10,19,42,14.50
2015,10,10,19,43,11.30
2015,10,10,19,44,19.30
2015,10,10,19,45,16.10
2015,10,10,19,46,4.80
2015,10,10,19,47,20.90
2015,10,10,19,48,24.20
2015,10,10,19,49,8.10
2015,10,10,19,50,11.30
2015,10,10,19,51,9.60
2015,10,10,19,52,11.30
2015,10,10,19,53,16.10
2015,10,10,19,54,24.20
2015,10,10,19,55,11.30
2015,10,10,19,56,11.30
2015,10,10,19,57,9.60
2015,10,10,19,58,17.70
2015,10,10,19,59,17.70
2015,10,10,20,00,17.70
2015,10,10,20,01,25.70
2015,10,10,20,02,25.70
2015,10,10,20,03,9.60
2015,10,10,20,04,14.50
2015,10,10,20,05,20.90
2015,10,10,20,06,24.20
2015,10,10,20,07,17.70
2015,10,10,20,08,27.40
2015,10,10,20,09,22.50
2015,10,10,20,10,16.10
2015,10,10,20,11,14.50
2015,10,10,20,12,22.50
2015,10,10,20,13,16.10
2015,10,10,20,14,12.90
2015,10,10,20,15,11.30
2015,10,10,20,16,14.50
2015,10,10,20,17,19.30
2015,10,10,20,18,20.90
2015,10,10,20,19,9.60
2015,10,10,20,20,6.40
2015,10,10,20,21,11.30
2015,10,10,20,22,11.30
2015,10,10,20,23,9.60
2015,10,10,20,24,22.50
2015,10,10,20,25,17.70
2015,10,10,20,26,19.30
2015,10,10,20,27,20.90
2015,10,10,20,28,9.60
2015,10,10,20,29,9.60
2015,10,10,20,30,11.30
2015,10,10,20,31,6.40
2015,10,10,20,32,11.30
2015,10,10,20,33,6.40
2015,10,10,20,34,14.50
2015,10,10,20,35,6.40
2015,10,10,20,36,4.80
2015,10,10,20,37,8.10
2015,10,10,20,38,12.90
2015,10,10,20,39,16.10
2015,10,10,20,40,11.30
2015,10,10,20,41,4.80
2015,10,10,20,42,8.10
2015,10,10,20,43,6.40
2015,10,10,20,44,16.10
2015,10,10,20,45,8.10
2015,10,10,20,46,8.10
2015,10,10,20,47,16.10
2015,10,10,20,48,14.50
2015,10,10,20,49,11.30
2015,10,10,20,50,4.80
2015,10,10,20,51,6.40
2015,10,10,20,52,6.40
2015,10,10,20,53,12.90
2015,10,10,20,54,11.30
2015,10,10,20,55,9.60
2015,10,10,20,56,17.70
2015,10,10,20,57,17.70
2015,10,10,20,58,20.90
2015,10,10,20,59,11.30
2015,10,10,21,00,24.20
2015,10,10,21,01,19.30
2015,10,10,21,02,11.30
2015,10,10,21,03,9.60
2015,10,10,21,04,11.30
2015,10,10,21,05,24.20
2015,10,10,21,06,27.40
2015,10,10,21,07,11.30
2015,10,10,21,08,19.30
2015,10,10,21,09,11.30
2015,10,10,21,10,25.70
2015,10,10,21,11,19.30
2015,10,10,21,12,16.10
2015,10,10,21,13,24.20
2015,10,10,21,14,20.90
2015,10,10,21,15,14.50
2015,10,10,21,16,11.30
2015,10,10,21,17,8.10
2015,10,10,21,18,27.40
2015,10,10,21,19,25.70
2015,10,10,21,20,16.10
2015,10,10,21,21,8.10
2015,10,10,21,22,8.10
2015,10,10,21,23,6.40
2015,10,10,21,24,11.30
2015,10,10,21,25,17.70
2015,10,10,21,26,12.90
2015,10,10,21,27,14.50
2015,10,10,21,28,22.50
2015,10,10,21,29,19.30
2015,10,10,21,30,11.30
2015,10,10,21,31,6.40
2015,10,10,21,32,16.10
2015,10,10,21,33,14.50
2015,10,10,21,34,19.30
2015,10,10,21,35,16.10
2015,10,10,21,36,4.80
2015,10,10,21,37,6.40
2015,10,10,21,38,9.60
2015,10,10,21,39,14.50
2015,10,10,21,40,12.90
2015,10,10,21,41,9.60
2015,10,10,21,42,14.50
2015,10,10,21,43,14.50
2015,10,10,21,44,8.10
2015,10,10,21,45,11.30
2015,10,10,21,46,8.10
2015,10,10,21,47,14.50
2015,10,10,21,48,14.50
2015,10,10,21,49,12.90
2015,10,10,21,50,16.10
2015,10,10,21,51,11.30
2015,10,10,21,52,11.30
2015,10,10,21,53,8.10
2015,10,10,21,54,12.90
2015,10,10,21,55,11.30
2015,10,10,21,56,19.30
2015,10,10,21,57,11.30
2015,10,10,21,58,19.30
2015,10,10,21,59,8.10
2015,10,10,22,00,11.30
2015,10,10,22,01,8.10
2015,10,10,22,02,4.80
2015,10,10,22,03,9.60
2015,10,10,22,04,9.60
2015,10,10,22,05,9.60
2015,10,10,22,06,9.60
2015,10,10,22,07,8.10
2015,10,10,22,08,3.20
2015,10,10,22,09,11.30
2015,10,10,22,10,11.30
2015,10,10,22,11,11.30
2015,10,10,22,12,14.50
2015,10,10,22,13,8.10
2015,10,10,22,14,4.80
2015,10,10,22,15,8.10
2015,10,10,22,16,8.10
2015,10,10,22,17,11.30
2015,10,10,22,18,12.90
2015,10,10,22,19,8.10
2015,10,10,22,20,8.10
2015,10,10,22,21,11.30